Content
SEND FEEDBACK

Daily
Averages
Monthly
Summary
United Kingdom

FROGMORE, ENGLAND


Home > Europe > United Kingdom > England
Elevation: 276 feet     Latitude: 51 42N     Longitude: 000 18W

WEATHER
 
SELECT A DAY
Number of Records: 153,138;   Date Range: 7/1/96 - 10/19/14
 
SHARE

PRINT THIS DATA

[ ← Previous Day ]
WEATHER ALMANAC - JUNE 18, 2014
[ Next Day → ]
[ °C ]   °F
Weather ElementAverageHighLow
Temperature63.3 °F71 °F (4:00 pm)56 °F (5:00 am)
Dewpoint51.7 °F56 °F (7:00 am)47 °F (5:00 pm)
Humidity63.9 %94 % (5:50 am)32 % (4:00 pm)
Barometer30.30 in30.35 in (8:00 am)30.24 in (5:50 pm)
Wind Speed9.2 mph12.7 mph (8:50 am)
Weather ElementAverage
Visibility12.8 mi
Wind DirectionNE (39.4 °)

Weather ElementTotal
Precipitation---
Heating Degree Days1.5 (Base 65)
Growing Degree Days13.5 (Base 50)
Averaged from 47 records on June 18, 2014
WEATHER CONDITIONS BREAKOUT
WIND DIRECTION BREAKOUT
WEATHER BY HOUR - JUNE 18, 2014
[ °C ]   °F
Local TimeTemperatureDewpointHumidityBarometerVisibilityWind DirectionWind SpeedGust SpeedPrecipitationEventsConditions
12:50 AM59.0 °F50.0 °F72 %30.33 in6.2 miNNE (30°)10.4 mphOvercast
1:00 AM58.0 °F51.0 °F70 %30.34 in25.0 miNNE (30°)10.4 mphOvercast
1:50 AM59.0 °F51.8 °F77 %30.33 in6.2 miNE (40°)10.4 mphOvercast
2:00 AM58.0 °F51.0 °F70 %30.34 in25.0 miNE (40°)10.4 mphOvercast
2:50 AM57.2 °F51.8 °F82 %30.33 in6.2 miNE (40°)11.5 mphOvercast
3:00 AM57.0 °F51.0 °F75 %30.34 in31.0 miNE (40°)11.5 mphOvercast
3:50 AM57.2 °F51.8 °F82 %30.33 in6.2 miNE (50°)8.1 mphOvercast
4:00 AM57.0 °F52.0 °F79 %30.33 in19.0 miNE (50°)8.1 mphOvercast
4:50 AM57.2 °F53.6 °F88 %30.33 in5.0 miNNE (30°)5.8 mphScattered Clouds
5:00 AM56.0 °F54.0 °F90 %30.33 in5.0 miNNE (30°)5.8 mphMostly Cloudy
5:50 AM57.2 °F55.4 °F94 %30.33 in5.6 miENE (60°)3.5 mphOvercast
6:00 AM57.0 °F55.0 °F91 %30.34 in6.0 miENE (60°)3.5 mphOvercast
6:50 AM57.2 °F55.4 °F94 %30.33 in6.2 miNNE (30°)6.9 mphMostly Cloudy
7:00 AM58.0 °F56.0 °F90 %30.34 in9.0 miNNE (30°)6.9 mphRainLight Drizzle
7:50 AM59.0 °F53.6 °F82 %30.33 in4.3 miNNE (30°)9.2 mphLight Drizzle
8:00 AM58.0 °F54.0 °F83 %30.35 in4.0 miNNE (30°)9.2 mphRainLight Drizzle
8:50 AM60.8 °F53.6 °F77 %30.33 in6.2 miNNE (30°)12.7 mphMostly Cloudy
9:00 AM61.0 °F53.0 °F68 %30.34 in19.0 miNNE (30°)12.7 mphRainLight Drizzle
9:50 AM62.6 °F53.6 °F72 %30.33 in6.2 miNNE (20°)11.5 mphScattered Clouds
10:00 AM63.0 °F54.0 °F64 %30.33 in22.0 miNNE (20°)11.5 mphPartly Cloudy
10:50 AM64.4 °F53.6 °F68 %30.33 in6.2 miNNE (30°)12.7 mphMostly Cloudy
11:00 AM64.0 °F53.0 °F58 %30.33 in25.0 miNNE (30°)12.7 mphMostly Cloudy
11:50 AM66.2 °F51.8 °F60 %30.30 in6.2 miNNE (30°)12.7 mphScattered Clouds
12:00 PM66.0 °F52.0 °F50 %30.32 in25.0 miNNE (30°)12.7 mphMostly Cloudy
12:50 PM68.0 °F51.8 °F56 %30.30 in6.2 miNNE (30°)11.5 mphScattered Clouds
1:00 PM67.0 °F51.0 °F47 %30.32 in22.0 miNNE (30°)11.5 mphPartly Cloudy
1:50 PM69.8 °F48.2 °F46 %30.30 in6.2 miNNE (20°)10.4 mphScattered Clouds
2:00 PM69.0 °F49.0 °F37 %30.30 in25.0 miNNE (20°)10.4 mphPartly Cloudy
2:50 PM69.8 °F51.8 °F53 %30.30 in6.2 miNNE (30°)11.5 mphScattered Clouds
3:00 PM70.0 °F51.0 °F40 %30.30 in25.0 miNNE (30°)11.5 mphPartly Cloudy
3:50 PM69.8 °F48.2 °F46 %30.27 in6.2 miNE (40°)11.5 mphScattered Clouds
4:00 PM71.0 °F48.0 °F32 %30.29 in19.0 miNE (40°)11.5 mphPartly Cloudy
4:50 PM69.8 °F48.2 °F46 %30.27 in6.2 miNNE (20°)11.5 mphScattered Clouds
5:00 PM69.0 °F47.0 °F35 %30.28 in19.0 miNNE (20°)11.5 mphPartly Cloudy
5:50 PM69.8 °F48.2 °F46 %30.24 in6.2 miNNE (30°)8.1 mphPartly Cloudy
6:00 PM69.0 °F48.0 °F36 %30.27 in19.0 miNNE (30°)8.1 mphScattered Clouds
6:50 PM69.8 °F48.2 °F46 %30.24 in6.2 miNE (40°)9.2 mphPartly Cloudy
7:00 PM69.0 °F49.0 °F37 %30.25 in19.0 miNE (40°)9.2 mphScattered Clouds
7:50 PM68.0 °F51.8 °F56 %30.24 in6.2 miENE (60°)8.1 mphPartly Cloudy
8:00 PM69.0 °F51.0 °F42 %30.25 in19.0 miENE (60°)8.1 mphScattered Clouds
8:50 PM66.2 °F51.8 °F60 %30.24 inNE (50°)5.8 mphClear
9:00 PM67.0 °F52.0 °F49 %30.25 in19.0 miNE (50°)5.8 mphClear
9:50 PM62.6 °F51.8 °F68 %30.24 inENE (70°)6.9 mphClear
10:00 PM63.0 °F53.0 °F60 %30.26 in19.0 miENE (70°)6.9 mphClear
10:50 PM60.8 °F53.6 °F77 %30.24 inEast (80°)3.5 mphClear
11:00 PM61.0 °F53.0 °F68 %30.26 in16.0 miEast (80°)3.5 mph
11:50 PM59.0 °F53.6 °F82 %30.24 in6.2 miENE (70°)4.6 mph
Hourly data recorded from EGWU, located miles away from Frogmore, England







STORIES FROM OUR PARTNERS